"Pseudo-MPEC" for 6H83E21

Created 2026 Aug 15 16:35:04 UT using Find_Orb

Click here for an explanation of pseudo-MPECs

 
 Astrometry: 
     6H83E21*KC2026 08 09.23855 22 48 58.53 -24 33 26.8    ~896o 19.6 GVNEOCPW94
     6H83E21 KC2026 08 09.24473 22 48 58.53 -24 33 46.1    ~896o 20.5 GVNEOCPW94
     6H83E21 KC2026 08 09.25091 22 48 58.53 -24 34 06.2    ~896o 19.9 GVNEOCPW94
     6H83E21 4C2026 08 09.27412 22 48 58.56 -24 35 20.9    ~897o 20.5 VqNEOCPW97
     6H83E21 4C2026 08 09.27999 22 48 58.55 -24 35 39.0    ~897o 21.0 VqNEOCPW97
     6H83E21 4C2026 08 09.28587 22 48 58.53 -24 35 58.1    ~897o 20.4 VqNEOCPW97
     6H83E21 4C2026 08 09.29417 22 48 58.53 -24 36 25.0    ~8995 19.2 VqNEOCPW97
     6H83E21 4C2026 08 09.30005 22 48 58.55 -24 36 43.3    ~8995 20.5 VqNEOCPW97
     6H83E21 4C2026 08 09.30592 22 48 58.60 -24 37 02.0    ~8995 21.2 VqNEOCPW97

Station data:
(W94) AMACS1, San Pedro de Atacama  (S22.953074 W68.179810)  Chile.  Observers
   A. Maury, G. Attard. Measurers A. Maury, G. Attard, D. Parrott. 0.28-m
   f/2.2 Schmidt + CCD.
(W97) Atacama Desert Observatory, San Pedro de Atacama  (S22.953413
   W68.179760)  Chile.

Orbital elements:  6H83E21
   Perihelion 2026 Jun 10.181755 +/- 65 TT =  4:21:43.6 (JD 2461201.681755)
Epoch 2026 Aug  9.0 TT = JDT 2461261.5   Earth MOID: 0.3295   Ma: 0.0172
M  24.629019856 +/- 33              (J2000 ecliptic)             AutoNEOCP
n   0.411730902 +/- 0.292           Peri.  149.588171 +/- 80
a   1.789480922 +/- 0.847           Node   130.232017 +/- 53
e   0.26309831 +/- 0.252            Incl.   22.458356 +/- 15
P   2.394/874.341d         H 20.75  G  0.15   U 11.9  SR
q 1.318671510 +/- 0.439    Q 2.260290335 +/- 5.42
From 9 observations 2026 Aug. 9 (97.0 min); mean residual 0".24
Residuals in arcseconds: 
260809 W94  .06+  .24-    260809 W97  .21+  .33-    260809 W97  .35-  .36-    
260809 W94  .01+  .30+    260809 W97  .03+  .35+    260809 W97  .14-  .10+    
260809 W94  .03-  .03+    260809 W97  .28-  .04+    260809 W97  .49+  .11+    

Ephemerides (geocentric):
Date (UTC) HH   RA             Dec           delta  r     elong  mag " sig PA
---- --------  ------------   ------------  ------ ------ -----  --- --------
2026 08 15 17  22 49 11.940   -30 02 18.20  .42057 1.4101 157.3 20.5  34d 106
2026 08 15 18  22 49 11.731   -30 04 17.51  .42070 1.4102 157.3 20.5  34d 106
2026 08 15 19  22 49 11.517   -30 06 16.70  .42083 1.4103 157.3 20.5  34d 106
2026 08 15 20  22 49 11.301   -30 08 15.78  .42096 1.4105 157.3 20.5  34d 106
2026 08 15 21  22 49 11.081   -30 10 14.74  .42110 1.4106 157.3 20.5  34d 106
2026 08 15 22  22 49 10.857   -30 12 13.59  .42123 1.4107 157.3 20.5  34d 106
2026 08 15 23  22 49 10.630   -30 14 12.32  .42136 1.4108 157.3 20.5  34d 106
2026 08 16 00  22 49 10.400   -30 16 10.94  .42149 1.4109 157.3 20.5  34d 105
2026 08 16 01  22 49 10.166   -30 18 09.45  .42162 1.4110 157.3 20.5  35d 104
2026 08 16 02  22 49 09.929   -30 20 07.83  .42176 1.4111 157.2 20.5  35d 103
2026 08 16 03  22 49 09.689   -30 22 06.10  .42189 1.4112 157.2 20.5  36d 102
2026 08 16 04  22 49 09.445   -30 24 04.26  .42202 1.4113 157.2 20.5  36d 102
2026 08 16 05  22 49 09.198   -30 26 02.30  .42216 1.4114 157.2 20.5  36d 102
2026 08 16 06  22 49 08.947   -30 28 00.22  .42229 1.4115 157.2 20.5  36d 102
2026 08 16 07  22 49 08.693   -30 29 58.03  .42243 1.4116 157.2 20.5  37d 102
2026 08 16 08  22 49 08.436   -30 31 55.72  .42256 1.4117 157.2 20.5  37d 102
2026 08 16 09  22 49 08.176   -30 33 53.29  .42270 1.4118 157.2 20.5  37d 102
2026 08 16 10  22 49 07.912   -30 35 50.74  .42283 1.4119 157.2 20.5  37d 103
2026 08 16 11  22 49 07.645   -30 37 48.08  .42297 1.4120 157.2 20.5  37d 103
2026 08 16 12  22 49 07.375   -30 39 45.30  .42310 1.4122 157.2 20.5  37d 103
2026 08 16 13  22 49 07.101   -30 41 42.40  .42324 1.4123 157.2 20.5  37d 103
2026 08 16 14  22 49 06.824   -30 43 39.38  .42338 1.4124 157.2 20.5  37d 103
2026 08 16 15  22 49 06.544   -30 45 36.25  .42352 1.4125 157.1 20.5  37d 104
2026 08 16 16  22 49 06.260   -30 47 32.99  .42365 1.4126 157.1 20.5  37d 104
2026 08 16 17  22 49 05.973   -30 49 29.62  .42379 1.4127 157.1 20.5  37d 104
2026 08 16 18  22 49 05.683   -30 51 26.12  .42393 1.4128 157.1 20.5  37d 104
2026 08 16 19  22 49 05.390   -30 53 22.51  .42407 1.4129 157.1 20.5  37d 104
2026 08 16 20  22 49 05.094   -30 55 18.78  .42421 1.4130 157.1 20.5  37d 104
2026 08 16 21  22 49 04.794   -30 57 14.93  .42435 1.4131 157.1 20.5  37d 105
2026 08 16 22  22 49 04.491   -30 59 10.95  .42449 1.4132 157.1 20.5  37d 105
2026 08 16 23  22 49 04.185   -31 01 06.86  .42463 1.4133 157.1 20.5  37d 105
2026 08 17 00  22 49 03.876   -31 03 02.65  .42477 1.4134 157.1 20.5  37d 105
2026 08 17 01  22 49 03.563   -31 04 58.32  .42491 1.4135 157.1 20.5  37d 105
2026 08 17 02  22 49 03.247   -31 06 53.86  .42505 1.4137 157.0 20.5  37d 105
2026 08 17 03  22 49 02.929   -31 08 49.29  .42519 1.4138 157.0 20.5  37d 105
2026 08 17 04  22 49 02.607   -31 10 44.59  .42534 1.4139 157.0 20.5  38d 105
2026 08 17 05  22 49 02.281   -31 12 39.77  .42548 1.4140 157.0 20.5  38d 106
2026 08 17 06  22 49 01.953   -31 14 34.83  .42562 1.4141 157.0 20.5  38d 106
2026 08 17 07  22 49 01.622   -31 16 29.77  .42576 1.4142 157.0 20.5  38d 106
2026 08 17 08  22 49 01.287   -31 18 24.59  .42591 1.4143 157.0 20.5  38d 106
2026 08 17 09  22 49 00.949   -31 20 19.28  .42605 1.4144 157.0 20.5  38d 106
2026 08 17 10  22 49 00.608   -31 22 13.85  .42619 1.4145 157.0 20.5  38d 106
2026 08 17 11  22 49 00.264   -31 24 08.30  .42634 1.4146 157.0 20.5  38d 106
2026 08 17 12  22 48 59.917   -31 26 02.63  .42648 1.4147 156.9 20.5  38d 106
2026 08 17 13  22 48 59.567   -31 27 56.83  .42663 1.4148 156.9 20.5  38d 106
2026 08 17 14  22 48 59.214   -31 29 50.91  .42677 1.4149 156.9 20.5  38d 105
2026 08 17 15  22 48 58.857   -31 31 44.86  .42692 1.4151 156.9 20.5  38d 105
2026 08 17 16  22 48 58.498   -31 33 38.70  .42707 1.4152 156.9 20.5  38d 105